Flag for Brazil Weather past 2 weeks in Volta Redonda, Rio de Janeiro, Brazil

75 °F

Partly cloudy.

Feels Like: 76 °F
Forecast: 65 / 80 °F
Wind: 9 mph from Southeast

Location: Galeao

Current Time: Nov 25, 2015 at 10:57:45 PM

Latest Report: Nov 25, 2015 at 10:00 PM

Visibility: N/A

Pressure: 29.92 "Hg

Humidity: 78%

Dew point: 68 °F

Location of Volta RedondaLocation

Historic Weather in Volta Redonda — Graph


Volta Redonda temperature yesterday

Maximum temperature yesterday: 82 °F (at 1:00 PM)
Minimum temperature yesterday: 72 °F (at 12:00 AM)
Average temperature yesterday: 76 °F

Past Weeks' High & Low Weather Summary

High99 °F (Nov 14, 2:00 PM)94% (Nov 14, 5:00 AM)30.04 "Hg (Nov 14, 5:00 AM)
Low68 °F (Nov 21, 6:00 PM)32% (Nov 14, 5:00 PM)29.56 "Hg (Nov 20, 2:00 PM)
Average79 °F76%29.81 "Hg
* Reported Nov 10 9:00 PM — Nov 25 9:00 PM, Volta Redonda, Weather by CustomWeather, © 2015

Note: Actual official high and low records may vary slightly from our data, if they occured in-between our weather recording intervals... More about our weather records


Volta Redonda weather history for previous 24 hours

Time TempWeatherWind HumidityBarometerVisibility
9:00 PM
Wed, Nov 25
75 °FPassing clouds.6 mph78%29.89 "HgN/A
8:00 PM73 °FPartly cloudy.7 mph89%29.86 "Hg6 mi
7:00 PM75 °FBroken clouds.5 mph89%29.83 "Hg4 mi
6:00 PM77 °FPartly sunny.3 mph83%29.80 "Hg5 mi
5:00 PM77 °FPartly sunny.3 mph83%29.83 "Hg5 mi
4:00 PM77 °FBroken clouds.8 mph83%29.80 "Hg4 mi
3:00 PM77 °FLight rain. Broken clouds.9 mph83%29.80 "Hg4 mi
2:00 PM81 °FPartly sunny.5 mph70%29.80 "Hg4 mi
1:00 PM84 °FPartly sunny.No wind70%29.80 "Hg4 mi
12:00 PM81 °FBroken clouds.1 mph74%29.83 "Hg3 mi
11:00 AM79 °FFog.5 mph84%29.83 "Hg3 mi
10:00 AM77 °FFog.3 mph83%29.83 "Hg3 mi
9:00 AM77 °FFog.1 mph83%29.83 "Hg3 mi
8:00 AM75 °FFog.2 mph89%29.80 "Hg3 mi
7:00 AM75 °FFog.5 mph83%29.77 "Hg3 mi
6:00 AM73 °FScattered clouds.3 mph89%29.77 "Hg5 mi
5:00 AM73 °FPassing clouds.3 mph89%29.74 "HgN/A
4:00 AM75 °FPassing clouds.2 mph83%29.77 "HgN/A
3:00 AM75 °FPassing clouds.2 mph83%29.77 "HgN/A
2:00 AM75 °FPassing clouds.2 mph89%29.77 "HgN/A
1:00 AM75 °FPassing clouds.No wind89%29.77 "HgN/A
12:00 AM75 °FPassing clouds.3 mph83%29.80 "HgN/A
11:00 PM
Tue, Nov 24
75 °FPassing clouds.5 mph83%29.80 "HgN/A
10:00 PM77 °FClear.2 mph79%29.77 "Hg10 mi
Weather by CustomWeather, © 2015

See weather overviewHow to use our weather pages